| time (UTC) | temp F | wind direction | speed MPH | gust MPH | rain 1hr in | rain 24hr in | rain mn in | humidity % | barometer mb |
| 20260905012621 | 72 | 293 | 0.0 | 0.0 | 0.00 | 0.03 | 0.00 | 94 | 969.0 |
| 20260905012124 | 72 | 293 | 0.0 | 0.0 | 0.00 | 0.03 | 0.00 | 93 | 968.9 |
| 20260905011624 | 72 | 293 | 0.0 | 0.0 | 0.00 | 0.03 | 0.00 | 92 | 969.0 |
| 20260905011343 | 73 | 293 | 0.0 | 0.0 | 0.00 | 0.03 | 0.00 | 92 | 969.0 |
| 20260905010623 | 73 | 293 | 0.0 | 0.0 | 0.00 | 0.03 | 0.00 | 91 | 969.0 |
| 20260905010121 | 73 | 293 | 0.0 | 0.0 | 0.00 | 0.03 | 0.00 | 92 | 969.0 |
| 20260905005621 | 73 | 293 | 0.0 | 0.0 | 0.00 | 0.03 | 0.00 | 92 | 969.1 |
| 20260905005119 | 72 | 293 | 0.0 | 0.0 | 0.00 | 0.03 | 0.00 | 92 | 969.0 |
| 20260905004619 | 72 | 293 | 0.0 | 0.0 | 0.00 | 0.03 | 0.00 | 92 | 969.0 |
| 20260905004337 | 72 | 293 | 0.0 | 0.0 | 0.00 | 0.03 | 0.00 | 92 | 968.9 |
| 20260905003844 | 73 | 293 | 0.0 | 0.0 | 0.00 | 0.03 | 0.00 | 91 | 968.9 |
| 20260905003119 | 73 | 293 | 0.0 | 0.0 | 0.00 | 0.03 | 0.00 | 91 | 968.9 |
| 20260905002620 | 73 | 293 | 0.0 | 0.0 | 0.00 | 0.03 | 0.00 | 90 | 968.7 |
| 20260905002119 | 74 | 293 | 0.0 | 0.0 | 0.00 | 0.03 | 0.00 | 89 | 968.6 |
| 20260905002104 | 74 | 293 | 0.0 | 0.0 | 0.00 | 0.03 | 0.00 | 89 | 968.6 |
| 20260905001119 | 74 | 293 | 0.0 | 0.0 | 0.00 | 0.03 | 0.00 | 88 | 968.5 |
| 20260905000619 | 75 | 293 | 0.0 | 0.0 | 0.00 | 0.03 | 0.00 | 88 | 968.5 |
| 20260905000117 | 75 | 293 | 0.0 | 0.0 | 0.00 | 0.03 | 0.00 | 87 | 968.5 |
| 20260904235616 | 76 | 293 | 0.0 | 0.0 | 0.00 | 0.03 | 0.00 | 87 | 968.5 |
| 20260904235115 | 76 | 293 | 0.0 | 0.0 | 0.00 | 0.03 | 0.00 | 86 | 968.6 |
| 20260904234614 | 76 | 293 | 0.0 | 0.0 | 0.00 | 0.03 | 0.00 | 86 | 968.6 |
| 20260904234113 | 77 | 293 | 0.0 | 0.0 | 0.00 | 0.04 | 0.00 | 85 | 968.6 |
| 20260904233616 | 77 | 293 | 0.0 | 0.0 | 0.00 | 0.04 | 0.00 | 84 | 968.6 |
| 20260904233113 | 77 | 293 | 0.0 | 0.0 | 0.00 | 0.04 | 0.00 | 83 | 968.6 |
| 20260904232837 | 78 | 293 | 0.0 | 0.0 | 0.00 | 0.05 | 0.00 | 83 | 968.6 |
| 20260904232327 | 78 | 293 | 0.0 | 0.0 | 0.00 | 0.05 | 0.00 | 82 | 968.6 |
| 20260904231606 | 78 | 293 | 0.0 | 0.0 | 0.00 | 0.05 | 0.00 | 82 | 968.6 |
| 20260904231100 | 79 | 292 | 0.0 | 0.0 | 0.00 | 0.05 | 0.00 | 81 | 968.6 |
| 20260904230554 | 79 | 268 | 0.0 | 0.0 | 0.00 | 0.05 | 0.00 | 81 | 968.5 |
| 20260904230048 | 80 | 268 | 0.0 | 0.0 | 0.00 | 0.05 | 0.00 | 80 | 968.4 |
| 20260904225542 | 81 | 268 | 0.0 | 0.0 | 0.00 | 0.05 | 0.00 | 78 | 968.4 |
| 20260904225036 | 81 | 268 | 0.0 | 0.0 | 0.00 | 0.05 | 0.00 | 78 | 968.4 |
| 20260904224529 | 82 | 267 | 0.0 | 0.0 | 0.00 | 0.05 | 0.00 | 76 | 968.4 |
| 20260904224246 | 82 | 267 | 0.0 | 0.0 | 0.00 | 0.05 | 0.00 | 76 | 968.4 |
| 20260904223518 | 82 | 267 | 0.0 | 0.0 | 0.00 | 0.05 | 0.00 | 76 | 968.5 |
| 20260904223013 | 81 | 267 | 0.0 | 0.0 | 0.00 | 0.05 | 0.00 | 76 | 968.6 |
| 20260904222506 | 81 | 267 | 0.0 | 0.0 | 0.00 | 0.05 | 0.00 | 76 | 968.6 |
| 20260904222000 | 82 | 267 | 0.0 | 0.0 | 0.00 | 0.05 | 0.00 | 73 | 968.5 |
| 20260904221454 | 82 | 267 | 0.0 | 0.0 | 0.00 | 0.05 | 0.00 | 74 | 968.5 |
| 20260904221207 | 82 | 350 | 0.0 | 0.0 | 0.00 | 0.05 | 0.00 | 73 | 968.5 |
| 20260904220442 | 82 | 13 | 0.0 | 0.0 | 0.00 | 0.05 | 0.00 | 73 | 968.5 |
| 20260904215936 | 82 | 277 | 0.0 | 0.0 | 0.00 | 0.05 | 0.00 | 73 | 968.5 |
| 20260904215430 | 82 | 261 | 0.0 | 0.0 | 0.00 | 0.05 | 0.00 | 73 | 968.2 |
| 20260904214924 | 82 | 271 | 0.0 | 0.0 | 0.00 | 0.05 | 0.00 | 71 | 968.2 |
| 20260904214418 | 82 | 269 | 0.0 | 0.0 | 0.00 | 0.05 | 0.00 | 75 | 968.4 |
| 20260904213912 | 81 | 24 | 1.0 | 2.0 | 0.00 | 0.05 | 0.00 | 73 | 968.3 |
| 20260904213406 | 81 | 19 | 1.0 | 6.0 | 0.00 | 0.05 | 0.00 | 73 | 968.5 |
| 20260904212900 | 82 | 33 | 1.0 | 6.0 | 0.00 | 0.05 | 0.00 | 71 | 968.6 |
| 20260904212354 | 82 | 298 | 1.0 | 4.0 | 0.00 | 0.05 | 0.00 | 72 | 968.6 |
| 20260904211848 | 81 | 302 | 2.0 | 5.0 | 0.00 | 0.05 | 0.00 | 73 | 968.6 |
| 20260904211342 | 81 | 36 | 1.0 | 5.0 | 0.00 | 0.05 | 0.00 | 73 | 968.4 |
| 20260904211104 | 80 | 33 | 1.0 | 5.0 | 0.00 | 0.05 | 0.00 | 75 | 968.6 |
| 20260904210550 | 80 | 10 | 1.0 | 5.0 | 0.00 | 0.05 | 0.00 | 75 | 968.6 |
| 20260904205823 | 80 | 44 | 1.0 | 5.0 | 0.00 | 0.05 | 0.00 | 74 | 968.7 |
| 20260904205543 | 80 | 24 | 1.0 | 7.0 | 0.00 | 0.05 | 0.00 | 74 | 968.7 |
| 20260904204811 | 81 | 15 | 2.0 | 7.0 | 0.00 | 0.05 | 0.00 | 75 | 968.9 |
| 20260904204306 | 80 | 289 | 3.0 | 7.0 | 0.00 | 0.05 | 0.00 | 74 | 969.0 |
| 20260904203800 | 81 | 25 | 3.0 | 10.0 | 0.00 | 0.05 | 0.00 | 72 | 968.9 |
| 20260904203254 | 81 | 22 | 2.0 | 10.0 | 0.00 | 0.05 | 0.00 | 73 | 968.9 |
| 20260904203006 | 81 | 22 | 3.0 | 11.0 | 0.00 | 0.05 | 0.00 | 73 | 968.9 |
| 20260904202243 | 81 | 315 | 3.0 | 11.0 | 0.00 | 0.05 | 0.00 | 73 | 969.0 |
| 20260904201735 | 82 | 320 | 2.0 | 8.0 | 0.00 | 0.05 | 0.00 | 73 | 969.0 |
| 20260904201230 | 82 | 46 | 2.0 | 5.0 | 0.00 | 0.05 | 0.00 | 74 | 969.0 |
| 20260904200725 | 81 | 12 | 1.0 | 5.0 | 0.00 | 0.05 | 0.00 | 73 | 968.9 |
| 20260904200218 | 81 | 28 | 1.0 | 5.0 | 0.00 | 0.05 | 0.00 | 73 | 968.9 |
| 20260904195934 | 82 | 26 | 2.0 | 7.0 | 0.00 | 0.05 | 0.00 | 73 | 969.1 |
| 20260904195206 | 82 | 19 | 2.0 | 7.0 | 0.00 | 0.05 | 0.00 | 72 | 969.2 |
| 20260904194700 | 82 | 49 | 2.0 | 9.0 | 0.00 | 0.05 | 0.00 | 72 | 969.2 |
| 20260904194154 | 82 | 344 | 2.0 | 12.0 | 0.00 | 0.05 | 0.00 | 71 | 969.1 |
| 20260904193647 | 82 | 311 | 2.0 | 12.0 | 0.00 | 0.05 | 0.00 | 71 | 969.1 |
| 20260904193141 | 83 | 47 | 2.0 | 8.0 | 0.00 | 0.05 | 0.00 | 72 | 969.2 |
| 20260904192636 | 83 | 340 | 3.0 | 10.0 | 0.00 | 0.05 | 0.00 | 72 | 969.2 |
| 20260904192130 | 83 | 286 | 3.0 | 13.0 | 0.00 | 0.05 | 0.00 | 70 | 969.2 |
| 20260904191624 | 83 | 321 | 2.0 | 13.0 | 0.00 | 0.05 | 0.00 | 70 | 969.3 |
| 20260904191118 | 83 | 26 | 2.0 | 9.0 | 0.00 | 0.05 | 0.00 | 72 | 969.3 |
| 20260904190612 | 83 | 9 | 3.0 | 11.0 | 0.00 | 0.05 | 0.00 | 71 | 969.4 |
| 20260904190106 | 83 | 344 | 1.0 | 11.0 | 0.00 | 0.05 | 0.00 | 71 | 969.4 |
| 20260904185600 | 83 | 51 | 1.0 | 8.0 | 0.00 | 0.05 | 0.00 | 74 | 969.5 |
| 20260904185053 | 81 | 307 | 1.0 | 5.0 | 0.00 | 0.05 | 0.00 | 76 | 969.6 |
| 20260904184548 | 80 | 17 | 1.0 | 6.0 | 0.00 | 0.05 | 0.00 | 78 | 969.7 |
| 20260904184042 | 80 | 293 | 1.0 | 6.0 | 0.00 | 0.05 | 0.00 | 77 | 969.7 |
| 20260904183536 | 80 | 300 | 1.0 | 7.0 | 0.00 | 0.05 | 0.00 | 77 | 969.8 |
| 20260904183030 | 80 | 17 | 1.0 | 7.0 | 0.00 | 0.05 | 0.00 | 76 | 969.9 |
| 20260904182523 | 80 | 259 | 1.0 | 8.0 | 0.00 | 0.05 | 0.00 | 76 | 969.9 |
| 20260904182018 | 80 | 305 | 1.0 | 8.0 | 0.00 | 0.05 | 0.00 | 74 | 970.0 |
| 20260904181512 | 80 | 30 | 2.0 | 7.0 | 0.00 | 0.05 | 0.00 | 75 | 970.2 |
| 20260904181005 | 81 | 58 | 2.0 | 7.0 | 0.00 | 0.05 | 0.00 | 74 | 970.3 |
| 20260904180500 | 81 | 44 | 1.0 | 4.0 | 0.00 | 0.05 | 0.00 | 74 | 970.4 |
| 20260904175954 | 81 | 292 | 2.0 | 8.0 | 0.00 | 0.05 | 0.00 | 74 | 970.5 |
| 20260904175448 | 81 | 196 | 2.0 | 8.0 | 0.00 | 0.05 | 0.00 | 74 | 970.6 |
| 20260904174942 | 81 | 32 | 2.0 | 7.0 | 0.00 | 0.05 | 0.00 | 73 | 970.6 |
| 20260904174653 | 81 | 289 | 2.0 | 4.0 | 0.00 | 0.05 | 0.00 | 74 | 970.6 |
| 20260904173930 | 81 | 297 | 1.0 | 7.0 | 0.00 | 0.05 | 0.00 | 74 | 970.7 |
| 20260904173427 | 81 | 46 | 2.0 | 8.0 | 0.00 | 0.05 | 0.00 | 76 | 970.8 |
| 20260904172927 | 81 | 307 | 2.0 | 8.0 | 0.00 | 0.05 | 0.00 | 74 | 970.8 |
| 20260904172428 | 81 | 28 | 2.0 | 7.0 | 0.00 | 0.05 | 0.00 | 74 | 970.8 |
| 20260904171928 | 81 | 355 | 2.0 | 7.0 | 0.00 | 0.05 | 0.00 | 74 | 970.9 |
| 20260904171428 | 81 | 24 | 1.0 | 4.0 | 0.00 | 0.05 | 0.00 | 72 | 970.7 |
| 20260904170927 | 82 | 196 | 1.0 | 5.0 | 0.00 | 0.05 | 0.00 | 71 | 970.8 |
| 20260904170426 | 82 | 355 | 1.0 | 5.0 | 0.00 | 0.05 | 0.00 | 74 | 970.8 |
| 20260904170402 | 81 | 5 | 2.0 | 7.0 | 0.00 | 0.05 | 0.00 | 72 | 970.8 |
| 20260904170021 | 82 | 46 | 2.0 | 7.0 | 0.00 | 0.05 | 0.00 | 73 | 970.8 |
| 20260904165158 | 82 | 355 | 2.0 | 9.0 | 0.00 | 0.05 | 0.00 | 74 | 970.8 |
| 20260904164422 | 81 | 296 | 2.0 | 9.0 | 0.00 | 0.05 | 0.00 | 73 | 970.8 |
| 20260904163921 | 81 | 292 | 2.0 | 7.0 | 0.00 | 0.05 | 0.00 | 75 | 970.8 |
| 20260904163644 | 81 | 333 | 1.0 | 6.0 | 0.00 | 0.05 | 0.00 | 74 | 970.8 |
| 20260904162921 | 81 | 311 | 1.0 | 6.0 | 0.00 | 0.05 | 0.00 | 74 | 970.8 |
| 20260904162419 | 81 | 311 | 1.0 | 6.0 | 0.00 | 0.05 | 0.00 | 75 | 970.8 |
| 20260904162139 | 80 | 61 | 1.0 | 6.0 | 0.00 | 0.05 | 0.00 | 78 | 970.7 |
| 20260904161632 | 80 | 11 | 1.0 | 6.0 | 0.00 | 0.05 | 0.00 | 76 | 970.9 |
| 20260904160912 | 80 | 13 | 1.0 | 4.0 | 0.00 | 0.05 | 0.00 | 78 | 970.9 |
| 20260904160408 | 79 | 301 | 1.0 | 4.0 | 0.00 | 0.05 | 0.00 | 79 | 970.9 |
| 20260904155910 | 79 | 80 | 1.0 | 5.0 | 0.00 | 0.05 | 0.00 | 79 | 970.8 |
| 20260904155622 | 79 | 291 | 1.0 | 2.0 | 0.00 | 0.05 | 0.00 | 79 | 970.8 |
| 20260904155506 | 79 | 289 | 1.0 | 5.0 | 0.00 | 0.05 | 0.00 | 78 | 970.8 |
| 20260904154410 | 79 | 300 | 1.0 | 7.0 | 0.00 | 0.05 | 0.00 | 80 | 970.8 |
| 20260904153910 | 78 | 22 | 1.0 | 7.0 | 0.00 | 0.05 | 0.00 | 79 | 970.8 |
| 20260904153408 | 78 | 18 | 1.0 | 4.0 | 0.00 | 0.05 | 0.00 | 80 | 971.1 |
| 20260904152907 | 78 | 22 | 1.0 | 6.0 | 0.00 | 0.05 | 0.00 | 81 | 971.1 |
| 20260904152408 | 77 | 38 | 1.0 | 6.0 | 0.00 | 0.05 | 0.00 | 82 | 971.0 |
| 20260904151904 | 78 | 19 | 1.0 | 5.0 | 0.00 | 0.05 | 0.00 | 80 | 971.1 |
| 20260904151628 | 78 | 340 | 1.0 | 5.0 | 0.00 | 0.05 | 0.00 | 79 | 971.0 |
| 20260904150903 | 78 | 288 | 1.0 | 7.0 | 0.00 | 0.05 | 0.00 | 80 | 971.0 |
| 20260904150403 | 77 | 329 | 2.0 | 7.0 | 0.00 | 0.05 | 0.00 | 80 | 970.9 |
| 20260904145902 | 77 | 19 | 1.0 | 7.0 | 0.00 | 0.05 | 0.00 | 80 | 970.9 |
| 20260904145403 | 76 | 312 | 1.0 | 5.0 | 0.00 | 0.05 | 0.00 | 82 | 970.9 |
| 20260904144902 | 76 | 13 | 1.0 | 4.0 | 0.00 | 0.05 | 0.00 | 82 | 970.8 |
| 20260904144404 | 76 | 302 | 1.0 | 4.0 | 0.00 | 0.05 | 0.00 | 82 | 970.9 |
| 20260904144119 | 76 | 304 | 1.0 | 3.0 | 0.00 | 0.05 | 0.00 | 83 | 970.8 |
| 20260904143631 | 76 | 44 | 1.0 | 3.0 | 0.00 | 0.05 | 0.00 | 82 | 971.0 |
| 20260904142902 | 76 | 33 | 1.0 | 5.0 | 0.00 | 0.05 | 0.00 | 82 | 970.8 |
| 20260904142628 | 76 | 292 | 1.0 | 5.0 | 0.00 | 0.05 | 0.00 | 82 | 970.9 |
| 20260904141902 | 76 | 55 | 0.0 | 4.0 | 0.00 | 0.05 | 0.00 | 83 | 971.0 |
| 20260904141405 | 75 | 240 | 0.0 | 4.0 | 0.00 | 0.05 | 0.00 | 85 | 971.1 |
| 20260904140906 | 75 | 61 | 0.0 | 4.0 | 0.00 | 0.05 | 0.00 | 85 | 971.1 |
| 20260904140405 | 75 | 292 | 0.0 | 4.0 | 0.00 | 0.05 | 0.00 | 86 | 971.1 |
| 20260904135906 | 75 | 15 | 0.0 | 2.0 | 0.00 | 0.05 | 0.00 | 87 | 971.0 |
| 20260904135401 | 74 | 321 | 0.0 | 0.0 | 0.00 | 0.05 | 0.00 | 87 | 971.0 |
| 20260904134843 | 74 | 321 | 0.0 | 2.0 | 0.00 | 0.05 | 0.00 | 87 | 971.0 |
| 20260904134343 | 74 | 330 | 1.0 | 6.0 | 0.00 | 0.05 | 0.00 | 88 | 970.9 |
| 20260904134103 | 73 | 27 | 1.0 | 6.0 | 0.00 | 0.05 | 0.00 | 87 | 970.9 |
| 20260904133613 | 73 | 25 | 1.0 | 6.0 | 0.00 | 0.05 | 0.00 | 87 | 971.0 |
| 20260904132842 | 73 | 40 | 0.0 | 4.0 | 0.00 | 0.05 | 0.00 | 87 | 970.9 |
| 20260904132347 | 73 | 31 | 0.0 | 0.0 | 0.00 | 0.05 | 0.00 | 89 | 971.0 |
| 20260904131841 | 73 | 28 | 0.0 | 0.0 | 0.00 | 0.05 | 0.00 | 91 | 971.1 |
| 20260904131342 | 73 | 28 | 0.0 | 0.0 | 0.00 | 0.05 | 0.00 | 90 | 971.1 |
| 20260904130841 | 73 | 302 | 0.0 | 0.0 | 0.00 | 0.05 | 0.00 | 91 | 971.2 |
| 20260904130340 | 73 | 302 | 0.0 | 0.0 | 0.00 | 0.05 | 0.00 | 90 | 971.2 |
| 20260904130058 | 73 | 302 | 0.0 | 0.0 | 0.00 | 0.05 | 0.00 | 91 | 971.3 |
| 20260904125332 | 72 | 229 | 0.0 | 0.0 | 0.00 | 0.05 | 0.00 | 91 | 971.3 |
| 20260904124833 | 72 | 176 | 0.0 | 0.0 | 0.00 | 0.05 | 0.00 | 91 | 971.2 |
| 20260904124551 | 72 | 176 | 0.0 | 0.0 | 0.00 | 0.05 | 0.00 | 91 | 971.3 |
| 20260904123819 | 72 | 230 | 0.0 | 0.0 | 0.00 | 0.05 | 0.00 | 92 | 971.3 |
| 20260904123313 | 71 | 230 | 0.0 | 0.0 | 0.00 | 0.05 | 0.00 | 92 | 971.3 |
| 20260904122806 | 71 | 230 | 0.0 | 0.0 | 0.00 | 0.05 | 0.00 | 93 | 971.3 |
| 20260904122301 | 71 | 206 | 0.0 | 0.0 | 0.00 | 0.05 | 0.00 | 94 | 971.4 |
| 20260904122027 | 71 | 205 | 0.0 | 0.0 | 0.00 | 0.05 | 0.00 | 94 | 971.3 |
| 20260904121245 | 71 | 205 | 0.0 | 0.0 | 0.00 | 0.05 | 0.00 | 94 | 971.3 |
| 20260904120739 | 71 | 205 | 0.0 | 0.0 | 0.00 | 0.05 | 0.00 | 94 | 971.3 |
| 20260904120233 | 71 | 212 | 0.0 | 0.0 | 0.00 | 0.05 | 0.00 | 94 | 971.2 |
| 20260904115728 | 71 | 213 | 0.0 | 0.0 | 0.00 | 0.05 | 0.00 | 94 | 971.2 |
| 20260904115220 | 71 | 179 | 0.0 | 0.0 | 0.00 | 0.05 | 0.00 | 94 | 971.3 |
| 20260904114715 | 70 | 179 | 0.0 | 0.0 | 0.00 | 0.05 | 0.00 | 94 | 971.4 |
| 20260904114209 | 70 | 179 | 0.0 | 0.0 | 0.00 | 0.05 | 0.00 | 93 | 971.4 |
| 20260904113703 | 70 | 76 | 0.0 | 0.0 | 0.00 | 0.05 | 0.00 | 93 | 971.3 |
| 20260904113203 | 71 | 76 | 0.0 | 2.0 | 0.00 | 0.05 | 0.00 | 92 | 971.2 |
| 20260904112700 | 71 | 40 | 0.0 | 4.0 | 0.00 | 0.05 | 0.00 | 92 | 971.1 |
| 20260904112159 | 71 | 29 | 1.0 | 4.0 | 0.00 | 0.05 | 0.00 | 92 | 971.2 |
| 20260904111700 | 71 | 48 | 1.0 | 4.0 | 0.00 | 0.05 | 0.00 | 93 | 971.3 |
| 20260904111159 | 71 | 33 | 1.0 | 4.0 | 0.00 | 0.05 | 0.00 | 93 | 971.2 |
| 20260904110656 | 71 | 336 | 2.0 | 7.0 | 0.00 | 0.05 | 0.00 | 93 | 971.2 |
| 20260904110154 | 71 | 12 | 2.0 | 7.0 | 0.00 | 0.05 | 0.00 | 93 | 971.3 |
| 20260904105655 | 71 | 331 | 1.0 | 5.0 | 0.00 | 0.05 | 0.00 | 93 | 971.1 |
| 20260904105156 | 71 | 109 | 2.0 | 10.0 | 0.00 | 0.05 | 0.00 | 93 | 971.0 |
| 20260904105145 | 70 | 332 | 2.0 | 10.0 | 0.00 | 0.05 | 0.00 | 93 | 971.1 |
| 20260904104155 | 70 | 38 | 1.0 | 8.0 | 0.00 | 0.05 | 0.00 | 94 | 971.1 |
| 20260904103654 | 70 | 355 | 0.0 | 2.0 | 0.00 | 0.05 | 0.00 | 94 | 971.1 |
| 20260904103154 | 70 | 76 | 0.0 | 0.0 | 0.00 | 0.05 | 0.00 | 95 | 971.0 |
| 20260904102652 | 70 | 76 | 0.0 | 1.0 | 0.00 | 0.05 | 0.00 | 95 | 971.0 |
| 20260904102150 | 70 | 76 | 0.0 | 3.0 | 0.00 | 0.05 | 0.00 | 95 | 970.9 |
| 20260904101649 | 70 | 51 | 0.0 | 3.0 | 0.00 | 0.05 | 0.00 | 95 | 971.1 |
| 20260904101623 | 69 | 153 | 0.0 | 2.0 | 0.00 | 0.05 | 0.00 | 96 | 971.0 |
| 20260904100644 | 69 | 54 | 0.0 | 0.0 | 0.00 | 0.05 | 0.00 | 96 | 970.9 |
| 20260904100144 | 69 | 54 | 0.0 | 5.0 | 0.00 | 0.05 | 0.00 | 96 | 970.7 |
| 20260904095904 | 69 | 54 | 0.0 | 5.0 | 0.00 | 0.05 | 0.00 | 96 | 970.7 |
| 20260904095137 | 69 | 344 | 0.0 | 1.0 | 0.00 | 0.05 | 0.00 | 97 | 970.7 |
| 20260904094851 | 69 | 292 | 0.0 | 3.0 | 0.00 | 0.05 | 0.00 | 97 | 970.7 |
| 20260904094125 | 69 | 343 | 0.0 | 1.0 | 0.00 | 0.05 | 0.00 | 97 | 970.7 |
| 20260904093619 | 69 | 340 | 1.0 | 9.0 | 0.00 | 0.05 | 0.00 | 97 | 970.7 |
| 20260904093113 | 69 | 346 | 1.0 | 9.0 | 0.00 | 0.05 | 0.00 | 98 | 970.8 |
| 20260904092607 | 68 | 24 | 0.0 | 4.0 | 0.00 | 0.05 | 0.00 | 99 | 970.7 |
| 20260904092101 | 68 | 136 | 0.0 | 0.0 | 0.00 | 0.05 | 0.00 | 99 | 970.7 |
| 20260904091555 | 67 | 150 | 0.0 | 0.0 | 0.00 | 0.05 | 0.00 | 99 | 970.8 |
| 20260904091049 | 67 | 150 | 0.0 | 0.0 | 0.00 | 0.05 | 0.00 | 99 | 970.8 |
| 20260904090811 | 67 | 151 | 0.0 | 0.0 | 0.00 | 0.05 | 0.00 | 99 | 970.8 |
| 20260904090036 | 67 | 150 | 0.0 | 0.0 | 0.00 | 0.05 | 0.00 | 99 | 970.7 |
| 20260904085532 | 67 | 151 | 0.0 | 0.0 | 0.00 | 0.05 | 0.00 | 99 | 970.7 |
| 20260904085025 | 67 | 151 | 0.0 | 0.0 | 0.00 | 0.05 | 0.00 | 99 | 970.6 |
| 20260904084943 | 68 | 151 | 0.0 | 0.0 | 0.00 | 0.05 | 0.00 | 99 | 970.6 |
| 20260904084608 | 67 | 151 | 0.0 | 0.0 | 0.00 | 0.05 | 0.00 | 99 | 970.6 |
| 20260904083508 | 68 | 151 | 0.0 | 1.0 | 0.00 | 0.05 | 0.00 | 99 | 970.6 |
| 20260904083001 | 67 | 33 | 0.0 | 1.0 | 0.00 | 0.05 | 0.00 | 99 | 970.5 |
| 20260904082711 | 67 | 339 | 0.0 | 1.0 | 0.00 | 0.05 | 0.00 | 99 | 970.5 |
| 20260904082207 | 67 | 9 | 0.0 | 0.0 | 0.00 | 0.05 | 0.00 | 100 | 970.4 |
| 20260904081442 | 67 | 10 | 0.0 | 0.0 | 0.00 | 0.05 | 0.00 | 100 | 970.3 |
| 20260904080936 | 67 | 9 | 0.0 | 0.0 | 0.00 | 0.05 | 0.00 | 100 | 970.2 |
| 20260904080431 | 67 | 9 | 0.0 | 0.0 | 0.00 | 0.05 | 0.00 | 100 | 970.2 |
| 20260904075927 | 67 | 9 | 0.0 | 0.0 | 0.00 | 0.05 | 0.00 | 100 | 970.1 |
| 20260904075428 | 67 | 9 | 0.0 | 0.0 | 0.00 | 0.05 | 0.00 | 100 | 970.2 |
| 20260904074928 | 67 | 9 | 0.0 | 0.0 | 0.00 | 0.05 | 0.00 | 100 | 970.1 |
| 20260904074428 | 67 | 9 | 0.0 | 0.0 | 0.00 | 0.05 | 0.00 | 100 | 970.1 |
| 20260904073927 | 67 | 10 | 0.0 | 0.0 | 0.00 | 0.05 | 0.00 | 100 | 970.1 |
| 20260904073643 | 67 | 9 | 0.0 | 0.0 | 0.00 | 0.05 | 0.00 | 99 | 969.9 |
| 20260904072922 | 67 | 9 | 0.0 | 0.0 | 0.00 | 0.05 | 0.00 | 99 | 969.9 |
| 20260904072651 | 67 | 9 | 0.0 | 0.0 | 0.00 | 0.05 | 0.00 | 99 | 969.8 |
| 20260904071922 | 67 | 9 | 0.0 | 0.0 | 0.00 | 0.05 | 0.00 | 99 | 969.7 |
| 20260904071421 | 67 | 9 | 0.0 | 0.0 | 0.00 | 0.05 | 0.00 | 99 | 969.8 |
| 20260904070919 | 68 | 9 | 0.0 | 0.0 | 0.00 | 0.05 | 0.00 | 99 | 969.9 |
| 20260904070418 | 68 | 10 | 0.0 | 0.0 | 0.00 | 0.05 | 0.00 | 99 | 969.8 |
| 20260904065915 | 68 | 9 | 0.0 | 0.0 | 0.00 | 0.05 | 0.00 | 99 | 969.7 |
| 20260904065415 | 68 | 10 | 0.0 | 0.0 | 0.00 | 0.05 | 0.00 | 99 | 969.7 |
| 20260904064914 | 68 | 9 | 0.0 | 0.0 | 0.00 | 0.05 | 0.00 | 99 | 969.6 |
| 20260904064633 | 68 | 9 | 0.0 | 0.0 | 0.00 | 0.05 | 0.00 | 99 | 969.6 |
| 20260904063912 | 68 | 10 | 0.0 | 0.0 | 0.00 | 0.05 | 0.00 | 99 | 969.5 |
| 20260904063413 | 69 | 9 | 0.0 | 0.0 | 0.00 | 0.05 | 0.00 | 99 | 969.6 |
| 20260904062910 | 69 | 9 | 0.0 | 0.0 | 0.00 | 0.05 | 0.00 | 99 | 969.7 |
| 20260904062410 | 69 | 9 | 0.0 | 0.0 | 0.00 | 0.05 | 0.00 | 99 | 969.7 |
| 20260904061905 | 69 | 10 | 0.0 | 0.0 | 0.00 | 0.05 | 0.00 | 99 | 969.6 |
| 20260904061400 | 69 | 9 | 0.0 | 0.0 | 0.00 | 0.05 | 0.00 | 99 | 969.5 |
| 20260904060900 | 69 | 9 | 0.0 | 0.0 | 0.00 | 0.05 | 0.00 | 99 | 969.5 |
| 20260904060358 | 69 | 10 | 0.0 | 0.0 | 0.00 | 0.05 | 0.00 | 99 | 969.3 |
| 20260904055859 | 69 | 9 | 0.0 | 0.0 | 0.00 | 0.05 | 0.00 | 99 | 969.3 |
| 20260904055357 | 69 | 9 | 0.0 | 0.0 | 0.00 | 0.05 | 0.00 | 99 | 969.3 |
| 20260904054859 | 69 | 9 | 0.0 | 0.0 | 0.00 | 0.05 | 0.00 | 99 | 969.4 |
| 20260904054356 | 69 | 9 | 0.0 | 0.0 | 0.00 | 0.05 | 0.00 | 99 | 969.6 |
| 20260904054116 | 69 | 9 | 0.0 | 0.0 | 0.00 | 0.05 | 0.00 | 99 | 969.6 |
| 20260904053625 | 69 | 9 | 0.0 | 0.0 | 0.00 | 0.05 | 0.00 | 99 | 969.7 |
| 20260904052852 | 69 | 10 | 0.0 | 0.0 | 0.00 | 0.05 | 0.00 | 99 | 969.8 |
| 20260904052350 | 69 | 10 | 0.0 | 0.0 | 0.00 | 0.05 | 0.00 | 99 | 969.9 |
| 20260904051850 | 69 | 10 | 0.0 | 0.0 | 0.00 | 0.05 | 0.00 | 99 | 969.9 |
| 20260904051350 | 69 | 10 | 0.0 | 0.0 | 0.00 | 0.05 | 0.00 | 99 | 969.9 |
| 20260904050850 | 69 | 10 | 0.0 | 1.0 | 0.00 | 0.05 | 0.00 | 99 | 969.9 |
| 20260904050351 | 69 | 10 | 0.0 | 1.0 | 0.00 | 0.05 | 0.00 | 98 | 969.9 |
| 20260904045851 | 69 | 9 | 0.0 | 0.0 | 0.00 | 0.05 | 0.00 | 98 | 969.9 |
| 20260904045606 | 69 | 10 | 0.0 | 0.0 | 0.00 | 0.05 | 0.00 | 98 | 969.9 |
| 20260904044849 | 69 | 10 | 0.0 | 0.0 | 0.00 | 0.05 | 0.00 | 98 | 969.8 |
| 20260904044347 | 69 | 10 | 0.0 | 0.0 | 0.00 | 0.05 | 0.00 | 98 | 969.7 |
| 20260904044105 | 69 | 10 | 0.0 | 0.0 | 0.00 | 0.05 | 0.00 | 98 | 969.8 |
| 20260904043345 | 69 | 10 | 0.0 | 0.0 | 0.00 | 0.05 | 0.00 | 98 | 969.7 |
| 20260904042843 | 69 | 348 | 0.0 | 1.0 | 0.00 | 0.05 | 0.00 | 98 | 969.5 |
| 20260904042611 | 69 | 348 | 0.0 | 1.0 | 0.00 | 0.05 | 0.00 | 98 | 969.4 |
| 20260904041841 | 70 | 342 | 0.0 | 1.0 | 0.00 | 0.05 | 0.00 | 97 | 969.3 |
| 20260904041343 | 70 | 280 | 0.0 | 0.0 | 0.01 | 0.05 | 0.00 | 97 | 969.3 |
| 20260904040842 | 70 | 280 | 0.0 | 0.0 | 0.01 | 0.05 | 0.00 | 97 | 969.3 |
| 20260904040343 | 70 | 275 | 0.0 | 0.0 | 0.01 | 0.05 | 0.00 | 97 | 969.3 |
| 20260904035841 | 70 | 275 | 0.0 | 1.0 | 0.02 | 0.05 | 2.85 | 97 | 969.3 |
| 20260904035820 | 70 | 273 | 0.0 | 1.0 | 0.02 | 0.05 | 2.85 | 97 | 969.1 |
| 20260904034837 | 70 | 182 | 0.0 | 0.0 | 0.02 | 0.05 | 2.85 | 97 | 969.1 |
| 20260904034341 | 70 | 172 | 0.0 | 0.0 | 0.03 | 0.05 | 2.85 | 97 | 969.0 |
| 20260904033836 | 70 | 153 | 0.0 | 0.0 | 0.03 | 0.05 | 2.85 | 97 | 969.0 |
| 20260904033336 | 70 | 258 | 0.0 | 0.0 | 0.03 | 0.05 | 2.85 | 97 | 969.3 |
| 20260904033102 | 71 | 258 | 0.0 | 1.0 | 0.03 | 0.05 | 2.85 | 96 | 969.4 |
| 20260904032335 | 71 | 258 | 0.0 | 2.0 | 0.03 | 0.05 | 2.85 | 96 | 969.5 |
| 20260904031833 | 71 | 303 | 0.0 | 4.0 | 0.03 | 0.05 | 2.85 | 96 | 969.7 |
| 20260904031333 | 71 | 162 | 0.0 | 4.0 | 0.02 | 0.04 | 2.84 | 96 | 969.7 |
| 20260904030833 | 71 | 270 | 0.0 | 3.0 | 0.02 | 0.04 | 2.84 | 96 | 969.9 |
| 20260904030331 | 71 | 202 | 0.0 | 1.0 | 0.02 | 0.04 | 2.84 | 95 | 970.1 |
| 20260904025833 | 72 | 184 | 0.0 | 1.0 | 0.01 | 0.03 | 2.83 | 95 | 970.3 |
| 20260904025326 | 72 | 227 | 0.0 | 2.0 | 0.01 | 0.03 | 2.83 | 94 | 970.6 |
| 20260904024823 | 73 | 213 | 0.0 | 2.0 | 0.00 | 0.02 | 2.82 | 93 | 970.8 |
| 20260904024325 | 73 | 274 | 0.0 | 0.0 | 0.00 | 0.02 | 2.82 | 93 | 971.1 |
| 20260904023822 | 73 | 211 | 0.0 | 0.0 | 0.00 | 0.02 | 2.82 | 92 | 971.2 |
| 20260904023321 | 74 | 209 | 0.0 | 3.0 | 0.00 | 0.02 | 2.82 | 92 | 971.2 |
| 20260904022820 | 74 | 288 | 0.0 | 3.0 | 0.00 | 0.02 | 2.82 | 91 | 971.3 |
| 20260904022318 | 74 | 314 | 0.0 | 4.0 | 0.00 | 0.02 | 2.82 | 91 | 971.4 |
| 20260904021817 | 75 | 219 | 0.0 | 4.0 | 0.00 | 0.02 | 2.82 | 91 | 971.5 |
| 20260904021319 | 75 | 296 | 0.0 | 3.0 | 0.00 | 0.02 | 2.82 | 92 | 971.7 |
| 20260904021037 | 75 | 212 | 0.0 | 6.0 | 0.00 | 0.02 | 2.82 | 92 | 971.8 |
| 20260904020318 | 76 | 212 | 1.0 | 6.0 | 0.00 | 0.02 | 2.82 | 92 | 971.6 |
| 20260904015815 | 76 | 265 | 1.0 | 6.0 | 0.00 | 0.02 | 2.82 | 93 | 971.4 |
| 20260904015536 | 76 | 46 | 1.0 | 6.0 | 0.00 | 0.02 | 2.82 | 94 | 971.3 |
| 20260904014817 | 75 | 26 | 1.0 | 6.0 | 0.00 | 0.02 | 2.82 | 96 | 971.0 |
| 20260904014315 | 75 | 196 | 0.0 | 1.0 | 0.00 | 0.02 | 2.82 | 98 | 970.9 |
| 20260904014046 | 75 | 295 | 0.0 | 2.0 | 0.00 | 0.02 | 2.82 | 98 | 970.9 |
| 20260904013537 | 75 | 295 | 0.0 | 2.0 | 0.00 | 0.02 | 2.82 | 98 | 970.6 |
| 20260904012817 | 75 | 300 | 0.0 | 2.0 | 0.00 | 0.02 | 2.82 | 98 | 970.6 |